| time (UTC) | temp C | wind direction | speed KPH | gust KPH | rain 1hr cm | rain 24hr cm | rain mn cm | humidity % | barometer mb |
| 20260503175517 | 16 | 0.0 | 1.6 | 0.00 | 0.00 | 0.00 | 67 | 1011.8 | |
| 20260503174518 | 16 | 0.0 | 1.6 | 0.00 | 0.00 | 0.00 | 66 | 1011.8 | |
| 20260503173536 | 16 | 0.0 | 1.6 | 0.00 | 0.00 | 0.00 | 65 | 1011.7 | |
| 20260503172518 | 16 | 0.0 | 8.0 | 0.00 | 0.00 | 0.00 | 63 | 1011.7 | |
| 20260503171518 | 16 | 0.0 | 1.6 | 0.00 | 0.00 | 0.00 | 64 | 1011.6 | |
| 20260503170517 | 16 | 0.0 | 0.0 | 0.00 | 0.00 | 0.00 | 65 | 1011.6 | |
| 20260503150517 | 12 | 0.0 | 0.0 | 0.00 | 0.00 | 0.00 | 81 | 1011.5 | |
| 20260503130517 | 12 | 0.0 | 0.0 | 0.00 | 0.00 | 0.00 | 79 | 1010.0 | |
| 20260503110517 | 12 | 0.0 | 0.0 | 0.00 | 0.00 | 0.00 | 79 | 1010.0 | |
| 20260503081537 | 13 | 0.0 | 3.2 | 0.00 | 0.00 | 0.00 | 78 | 1010.5 | |
| 20260503080517 | 13 | 0.0 | 4.8 | 0.00 | 0.00 | 0.00 | 78 | 1010.5 | |
| 20260503072537 | 13 | 0.0 | 1.6 | 0.00 | 0.00 | 0.00 | 78 | 1010.7 | |
| 20260503071516 | 13 | 0.0 | 3.2 | 0.00 | 0.00 | 0.00 | 78 | 1010.7 | |
| 20260503070516 | 13 | 0.0 | 6.4 | 0.00 | 0.00 | 0.00 | 78 | 1010.6 | |
| 20260503054516 | 13 | 0.0 | 8.0 | 0.00 | 0.00 | 0.00 | 77 | 1011.0 | |
| 20260503053536 | 13 | 203 | 1.6 | 8.0 | 0.00 | 0.00 | 0.00 | 77 | 1011.2 |
| 20260503052536 | 13 | 0.0 | 6.4 | 0.00 | 0.00 | 0.00 | 77 | 1011.1 | |
| 20260503051516 | 13 | 225 | 1.6 | 9.7 | 0.00 | 0.00 | 0.00 | 77 | 1011.1 |
| 20260503050516 | 13 | 0.0 | 3.2 | 0.00 | 0.00 | 0.00 | 77 | 1011.2 | |
| 20260503045516 | 13 | 0.0 | 4.8 | 0.00 | 0.00 | 0.00 | 77 | 1011.1 | |
| 20260503044517 | 13 | 0.0 | 9.7 | 0.00 | 0.00 | 0.00 | 77 | 1011.0 | |
| 20260503043536 | 13 | 0.0 | 6.4 | 0.00 | 0.00 | 0.00 | 76 | 1010.8 | |
| 20260503042516 | 13 | 0.0 | 4.8 | 0.00 | 0.00 | 0.00 | 76 | 1010.8 | |
| 20260503041516 | 13 | 203 | 1.6 | 11.3 | 0.00 | 0.00 | 0.00 | 75 | 1010.7 |
| 20260503040516 | 13 | 0.0 | 4.8 | 0.00 | 0.00 | 0.00 | 76 | 1010.5 | |
| 20260503035517 | 13 | 0.0 | 9.7 | 0.00 | 0.00 | 0.00 | 76 | 1010.5 | |
| 20260503034517 | 13 | 0.0 | 8.0 | 0.00 | 0.00 | 0.00 | 75 | 1010.3 | |
| 20260503033536 | 13 | 203 | 3.2 | 16.1 | 0.00 | 0.00 | 0.00 | 75 | 1010.2 |
| 20260503032536 | 13 | 225 | 1.6 | 9.7 | 0.00 | 0.00 | 0.00 | 75 | 1010.2 |
| 20260503031516 | 13 | 135 | 1.6 | 11.3 | 0.00 | 0.00 | 0.00 | 74 | 1010.0 |
| 20260503030537 | 13 | 0.0 | 6.4 | 0.00 | 0.00 | 0.00 | 74 | 1010.0 | |
| 20260503025516 | 14 | 225 | 1.6 | 9.7 | 0.00 | 0.00 | 0.00 | 73 | 1009.8 |
| 20260503024536 | 14 | 225 | 1.6 | 11.3 | 0.00 | 0.00 | 0.00 | 72 | 1009.7 |
| 20260503023516 | 15 | 225 | 1.6 | 16.1 | 0.00 | 0.00 | 0.00 | 72 | 1009.7 |
| 20260503022516 | 15 | 225 | 1.6 | 12.9 | 0.00 | 0.00 | 0.00 | 71 | 1009.6 |
| 20260503021516 | 15 | 135 | 1.6 | 17.7 | 0.00 | 0.00 | 0.00 | 70 | 1009.6 |
| 20260503020536 | 15 | 180 | 3.2 | 16.1 | 0.00 | 0.00 | 0.00 | 69 | 1009.6 |
| 20260503015516 | 15 | 225 | 1.6 | 9.7 | 0.00 | 0.00 | 0.00 | 69 | 1009.6 |
| 20260503014516 | 16 | 113 | 3.2 | 16.1 | 0.00 | 0.00 | 0.00 | 68 | 1009.6 |
| 20260503013516 | 16 | 158 | 4.8 | 14.5 | 0.00 | 0.00 | 0.00 | 68 | 1009.7 |
| 20260503012516 | 16 | 203 | 1.6 | 12.9 | 0.00 | 0.00 | 0.00 | 67 | 1009.7 |
| 20260503011536 | 16 | 180 | 4.8 | 16.1 | 0.00 | 0.00 | 0.00 | 67 | 1009.6 |
| 20260503010637 | 16 | 0.0 | 12.9 | 0.00 | 0.00 | 0.00 | 67 | 1009.6 | |
| 20260503005516 | 17 | 203 | 4.8 | 16.1 | 0.00 | 0.00 | 0.00 | 66 | 1009.6 |
| 20260503004516 | 17 | 135 | 1.6 | 14.5 | 0.00 | 0.00 | 0.00 | 67 | 1009.7 |
| 20260503003556 | 17 | 135 | 3.2 | 16.1 | 0.00 | 0.00 | 0.00 | 65 | 1009.7 |
| 20260503002516 | 17 | 113 | 3.2 | 11.3 | 0.00 | 0.00 | 0.00 | 64 | 1009.6 |
| 20260503001516 | 18 | 158 | 3.2 | 17.7 | 0.00 | 0.00 | 0.00 | 63 | 1009.7 |
| 20260503000516 | 18 | 203 | 1.6 | 9.7 | 0.00 | 0.00 | 0.00 | 63 | 1009.7 |
| 20260502235516 | 18 | 158 | 4.8 | 16.1 | 0.00 | 0.00 | 0.00 | 62 | 1009.7 |
| 20260502234516 | 18 | 180 | 3.2 | 12.9 | 0.00 | 0.00 | 0.00 | 61 | 1009.7 |
| 20260502233516 | 19 | 135 | 3.2 | 14.5 | 0.00 | 0.00 | 0.00 | 59 | 1009.8 |
| 20260502232516 | 20 | 180 | 4.8 | 20.9 | 0.00 | 0.00 | 0.00 | 58 | 1009.7 |
| 20260502231516 | 20 | 180 | 4.8 | 17.7 | 0.00 | 0.00 | 0.00 | 58 | 1009.8 |
| 20260502230516 | 20 | 203 | 6.4 | 20.9 | 0.00 | 0.00 | 0.00 | 57 | 1010.0 |
| 20260502225536 | 20 | 158 | 3.2 | 12.9 | 0.00 | 0.00 | 0.00 | 58 | 1010.1 |
| 20260502224516 | 21 | 180 | 4.8 | 16.1 | 0.00 | 0.00 | 0.00 | 56 | 1010.2 |
| 20260502223516 | 21 | 90 | 1.6 | 16.1 | 0.00 | 0.00 | 0.00 | 56 | 1010.3 |
| 20260502222536 | 21 | 180 | 4.8 | 17.7 | 0.00 | 0.00 | 0.00 | 56 | 1010.6 |
| 20260502221516 | 21 | 203 | 3.2 | 12.9 | 0.00 | 0.00 | 0.00 | 57 | 1010.8 |
| 20260502220536 | 21 | 203 | 3.2 | 14.5 | 0.00 | 0.00 | 0.00 | 57 | 1010.8 |
| 20260502215515 | 21 | 90 | 4.8 | 16.1 | 0.00 | 0.00 | 0.00 | 57 | 1010.9 |
| 20260502214516 | 21 | 158 | 4.8 | 12.9 | 0.00 | 0.00 | 0.00 | 56 | 1010.9 |
| 20260502213517 | 21 | 113 | 3.2 | 17.7 | 0.00 | 0.00 | 0.00 | 56 | 1010.9 |
| 20260502212518 | 22 | 113 | 1.6 | 9.7 | 0.00 | 0.00 | 0.00 | 55 | 1011.0 |
| 20260502211558 | 22 | 113 | 1.6 | 11.3 | 0.00 | 0.00 | 0.00 | 55 | 1011.1 |
| 20260502210518 | 22 | 0.0 | 1.6 | 0.00 | 0.00 | 0.00 | 57 | 1011.1 | |
| 20260502205518 | 21 | 0.0 | 4.8 | 0.00 | 0.00 | 0.00 | 57 | 1011.5 | |
| 20260502204517 | 20 | 0.0 | 1.6 | 0.00 | 0.00 | 0.00 | 59 | 1011.6 | |
| 20260502203518 | 20 | 0.0 | 0.0 | 0.00 | 0.00 | 0.00 | 61 | 1011.7 | |
| 20260502202517 | 19 | 0.0 | 0.0 | 0.00 | 0.00 | 0.00 | 63 | 1011.9 | |
| 20260502201557 | 18 | 0.0 | 1.6 | 0.00 | 0.00 | 0.00 | 65 | 1012.1 | |
| 20260502200517 | 18 | 90 | 1.6 | 14.5 | 0.00 | 0.00 | 0.00 | 67 | 1012.1 |
| 20260502195518 | 18 | 0.0 | 0.0 | 0.00 | 0.00 | 0.00 | 69 | 1012.3 | |
| 20260502194518 | 17 | 0.0 | 0.0 | 0.00 | 0.00 | 0.00 | 72 | 1012.4 | |
| 20260502193518 | 17 | 0.0 | 1.6 | 0.00 | 0.00 | 0.00 | 74 | 1012.5 | |
| 20260502192517 | 16 | 0.0 | 0.0 | 0.00 | 0.00 | 0.00 | 76 | 1012.5 | |
| 20260502191518 | 16 | 0.0 | 0.0 | 0.00 | 0.00 | 0.00 | 77 | 1012.7 | |
| 20260502190517 | 16 | 0.0 | 1.6 | 0.00 | 0.00 | 0.00 | 78 | 1012.7 | |
| 20260502185517 | 15 | 0.0 | 1.6 | 0.00 | 0.00 | 0.00 | 79 | 1012.8 | |
| 20260502184517 | 15 | 0.0 | 0.0 | 0.00 | 0.00 | 0.00 | 79 | 1012.7 | |
| 20260502183517 | 15 | 0.0 | 0.0 | 0.00 | 0.00 | 0.00 | 79 | 1012.8 | |
| 20260502182517 | 15 | 0.0 | 0.0 | 0.00 | 0.00 | 0.00 | 80 | 1012.8 | |
| 20260502181517 | 15 | 0.0 | 0.0 | 0.00 | 0.00 | 0.00 | 80 | 1012.8 | |
| 20260502180518 | 15 | 0.0 | 1.6 | 0.00 | 0.00 | 0.00 | 81 | 1012.8 |